Voltar ao catálogo

RESURS P4

AtivoCiênciaSSO
NORAD 59371·PAYLOAD·🇷🇺 Russia

Lançado Mar 31, 2024 de Baikonur Cosmodrome

Loading…

Próximas Passagens (próximas 24 horas)

TLE

AtualizadoSource: Space-Track

Época: Sep 14, 2026, 14:16 UTC

1 59371U 24061A   26257.59504319  .00002584  00000-0  84576-4 0  9999
2 59371  97.2825 203.9949 0001253 129.6176 230.5177 15.32578309137457

Acompanhe RESURS P4 em tempo real com AllMySat

Download on the App Store